Weather in Bolshaya Rechka

Russia / Republic of Buryatia     51°58′11″N   106°19′34″E
temp.,
°C
wind,
m/s
gust,
m/s
humid.,
%
clouds,
%
prec.,
mm/h
press.,
hPa
HPBL,
m
17 may, tue
tue1723:00+11s2253100 0.0 100914
02:00+10ssw3357100 0.0 101026
05:00+10ssw5105799 0.0 1010162
08:00+7ssw5794100 4.7 1014173
11:00+11wsw8138884 1.9 1012565
14:00+14wsw9117252 3.4 1011528
17:00+12sw5107275 0.4 1011200
20:00+13ssw596898 0.4 1010159
18 may, wed
wed1823:00+11ssw466924 0.0 101396
02:00+12ssw486799 0.0 1013133
05:00+11ssw477092 0.0 1014128
08:00+13sw466483 0.0 1014202
11:00+16wsw555451 0.0 1014429
14:00+19wsw55465 0.0 1013625
17:00+19w34445 0.0 1012474
20:00+15ene11585 0.0 101211
19 may, thu
thu1923:00+12se11655 0.0 101312
02:00+11s11675 0.0 101411
05:00+10w016882 0.0 101410
08:00+15sw125616 0.0 1013136
11:00+17w445177 0.0 1013299
14:00+20wsw464164 0.0 1011506
17:00+20wsw454414 0.0 1009267
20:00+16ne2258100 0.0 101017
20 may, fri
fri2023:00+13e1160100 0.0 101011
02:00+13sw115996 0.0 101012
05:00+12sse11609 0.0 100910
08:00+16nw10538 0.0 1009133
11:00+19wnw3147100 0.0 1009337
14:00+21wsw114217 0.0 1007362
17:00+18ne68525 0.0 1007313
20:00+14nne5107284 0.0 1008180
21 may, sat
sat2123:00+9sw5798100 1.1 1012147
02:00+11sw61193100 1.4 1012274
05:00+9sw61198100 0.3 1013241
08:00+9w51098100 5.5 1016222
11:00+8sw699599 2.9 1019239
14:00+10sw81386100 2.9 1017417
17:00+14sw811615 0.0 1014467
20:00+12sw5116545 0.0 1014256